Union Aéronautique de la Côte d'Azur

Union Aéronautique de la Côte d'Azur
UACA
Approuvé A.T.O. EASA – N°FR.ATO.0108

UNION des aéroclubs
Cannes “Ailes d’Azur”, Nice “Côte d’Azur”, Grasse “St Exupery”, ACCA “Francis Séverac”

Un cache-pitot se trouve à bord de chaque avion. Pensez à le mettre en place à la fin de chaque vol !

Avant de quitter l'avion, vérifiez que vous n'emportez pas la checklist

Un vol ne s'entreprend qu'avec un pare-brise parfaitement propre, il en va de votre sécurité, et de celle des autres

Après chaque vol, merci de mettre en place les pares-soleil!


Météo à Cannes:
METAR
LFMD 191500Z AUTO 29011KT 240V350 CAVOK 18/M08 Q1008 TEMPO 26015G25KT =

TAF
LFMD 191400Z 1915/2015 26014KT CAVOK TEMPO 1915/2015 26015G25KT PROB40 TEMPO 2012/2015 25030G40KT =

SR / SS: 07:03 / 16:22 UTC (LFMD 2018-01-19)